Tracking 31027 objects as of 19-Jul-2025
HD Live streaming from Space Station
objects crossing your sky now

SMDC ONE 1.1

Track SMDC ONE 1.1 now!
10-day predictions
SMDC ONE 1.1 is classified as:


NORAD ID: 38766
Int'l Code: 2012-048J
Perigee: 299.6 km
Apogee: 366.0 km
Inclination: 64.6 °
Period: 91.0 minutes
Semi major axis: 6703 km
RCS: Unknown
Launch date: September 13, 2012
Source: United States (US)
Launch site: AIR FORCE WESTERN TEST RANGE (AFWTR)
Your satellite tracking list
STARLINK-5129
Track 1 satellite(s)




NASA's NSSDC Master Catalog

Two Line Element Set (TLE):
1 38766U 12048J   25198.90491299  .00257768  28894-4  11730-2 0  9997
2 38766  64.6277  17.2001 0049521 265.2370  94.3130 15.81688719 68942
Source of the keplerian elements: AFSPC